Sitka, AK

12:01 AM AKDT on June 25, 2017 (GMT -0800)
Sitka Rocky Gutierrez

Weather History for PASI - February, 2012

Change the Weather History Date:

Wednesday, February 29, 2012

  Actual Average Record
Temperature  
Mean Temperature 32 °F -  
Max Temperature 37 °F - 59 °F (1968)
Min Temperature 27 °F - 12 °F (1972)
Degree Days  
Heating Degree Days 33    
Moisture  
Dew Point 31 °F    
Average Humidity 94    
Maximum Humidity 100    
Minimum Humidity 76    
Precipitation  
Precipitation 0.05 in - - ()
Sea Level Pressure  
Sea Level Pressure 29.63 in    
Wind  
Wind Speed 3 mph (SSE)    
Max Wind Speed 9 mph    
Max Gust Speed -    
Visibility 9 miles    
Events Rain , Snow    
Averages and records for this station are not official NWS values.
T = Trace of Precipitation, MM = Missing Value Source: NWS Daily Summary

Daily Weather History Graph

Daily Weather History Graph

Search for Another Location

Airport or City:

Trip Planner

Search our weather history database for the weather conditions in past years. The results will help you decide how hot, cold, wet, or windy it might be!

Date:

Astronomy

Feb. 29, 2012 Rise Set
Actual Time 6:55 AM AKST 5:33 PM AKST
Civil Twilight 6:16 AM AKST 6:11 PM AKST
Nautical Twilight 5:32 AM AKST 6:56 PM AKST
Astronomical Twilight 4:48 AM AKST 7:40 PM AKST
Moon 9:16 AM AKST (2/29) 2:00 AM AKST (2/29)
Length of Visible Light 11h 54m
Length of Day
10h 38m
Waxing Crescent, 48% of the Moon is Illuminated
Feb 29
Waxing Crescent
Feb 29
First Quarter
Mar 8
Full
Mar 14
Last Quarter
Mar 22
New

Hourly Weather History & Observations

Time (AKST) Temp. Windchill Dew Point Humidity Pressure Visibility Wind Dir Wind Speed Gust Speed Precip Events Conditions
12:16 AM 30.2 °F - 30.2 °F 100% 29.47 in 10.0 mi Calm Calm - N/A   Scattered Clouds
12:53 AM 30.0 °F - 30.0 °F 100% 29.47 in 10.0 mi Calm Calm - N/A   Clear
1:53 AM 30.0 °F - 30.0 °F 100% 29.48 in 10.0 mi Calm Calm - N/A   Partly Cloudy
3:53 AM 28.0 °F 22.8 °F 28.0 °F 100% 29.48 in 10.0 mi East 4.6 mph - N/A   Clear
4:53 AM 28.0 °F - 28.0 °F 100% 29.49 in 10.0 mi Calm Calm - N/A   Mostly Cloudy
5:53 AM 28.0 °F 24.2 °F 28.0 °F 100% 29.49 in 10.0 mi East 3.5 mph - N/A   Mostly Cloudy
6:53 AM 27.0 °F - 27.0 °F 100% 29.50 in 10.0 mi Calm Calm - N/A   Scattered Clouds
7:53 AM 27.0 °F - 27.0 °F 100% 29.51 in 10.0 mi Calm Calm - N/A   Partly Cloudy
8:29 AM 30.2 °F 26.7 °F 30.2 °F 100% 29.51 in 10.0 mi East 3.5 mph - N/A   Mostly Cloudy
8:32 AM 30.2 °F - 30.2 °F 100% 29.52 in 10.0 mi Calm Calm - N/A   Partly Cloudy
8:53 AM 30.0 °F 25.2 °F 30.0 °F 100% 29.52 in 10.0 mi East 4.6 mph - N/A   Partly Cloudy
9:53 AM 32.0 °F 28.7 °F 30.0 °F 92% 29.54 in 10.0 mi ESE 3.5 mph - N/A   Clear
10:53 AM 33.1 °F - 30.9 °F 92% 29.56 in 10.0 mi Calm Calm - N/A   Scattered Clouds
11:53 AM 34.0 °F 31.0 °F 30.0 °F 85% 29.58 in 10.0 mi SE 3.5 mph - N/A   Overcast
12:53 PM 35.1 °F - 30.9 °F 85% 29.59 in 10.0 mi Calm Calm - N/A   Overcast
1:53 PM 37.0 °F 33.3 °F 30.0 °F 76% 29.60 in 10.0 mi SW 4.6 mph - N/A   Overcast
2:53 PM 37.0 °F 32.4 °F 30.9 °F 79% 29.62 in 10.0 mi SW 5.8 mph - N/A   Scattered Clouds
3:42 PM 37.4 °F - 33.8 °F 87% 29.63 in 10.0 mi Calm Calm - N/A   Mostly Cloudy
3:53 PM 37.0 °F 33.3 °F 32.0 °F 82% 29.63 in 10.0 mi SW 4.6 mph - N/A   Mostly Cloudy
4:53 PM 36.0 °F 31.1 °F 32.0 °F 86% 29.65 in 10.0 mi SW 5.8 mph - N/A   Overcast
5:06 PM 35.6 °F 30.7 °F 33.8 °F 93% 29.65 in 10.0 mi SSW 5.8 mph - N/A   Overcast
5:14 PM 35.6 °F 29.2 °F 33.8 °F 93% 29.65 in 10.0 mi SW 8.1 mph - N/A   Overcast
5:45 PM 35.6 °F 31.7 °F 32.0 °F 87% 29.66 in 10.0 mi South 4.6 mph - 0.00 in Rain Light Rain
5:53 PM 35.1 °F 27.9 °F 33.1 °F 92% 29.67 in 10.0 mi SSE 9.2 mph - 0.00 in   Overcast
6:13 PM 33.8 °F 27.0 °F 33.8 °F 100% 29.67 in 10.0 mi SSE 8.1 mph - N/A   Overcast
6:31 PM 35.6 °F 30.7 °F 33.8 °F 93% 29.68 in 10.0 mi WSW 5.8 mph - N/A   Overcast
6:53 PM 35.1 °F 32.2 °F 33.1 °F 92% 29.69 in 10.0 mi WSW 3.5 mph - N/A   Overcast
7:08 PM 35.6 °F 29.9 °F 33.8 °F 93% 29.69 in 10.0 mi West 6.9 mph - N/A   Overcast
7:16 PM 35.6 °F 30.7 °F 33.8 °F 93% 29.69 in 10.0 mi WSW 5.8 mph - N/A   Overcast
7:53 PM 35.1 °F 30.1 °F 33.1 °F 92% 29.70 in 10.0 mi South 5.8 mph - 0.00 in Rain Light Rain
8:53 PM 34.0 °F 28.8 °F 32.0 °F 92% 29.71 in 10.0 mi SE 5.8 mph - 0.00 in Rain Light Rain
9:31 PM 33.8 °F 29.6 °F 32.0 °F 93% 29.73 in 10.0 mi ESE 4.6 mph - 0.00 in   Mostly Cloudy
9:53 PM 33.1 °F 27.7 °F 32.0 °F 96% 29.74 in 10.0 mi East 5.8 mph - 0.00 in   Mostly Cloudy
10:43 PM 33.8 °F 27.7 °F 32.0 °F 93% 29.75 in 10.0 mi ESE 6.9 mph - 0.00 in   Mostly Cloudy
10:53 PM 33.1 °F 28.7 °F 32.0 °F 96% 29.75 in 10.0 mi East 4.6 mph - 0.00 in   Mostly Cloudy
11:04 PM 33.8 °F 27.0 °F 32.0 °F 93% 29.76 in 4.0 mi SSE 8.1 mph - 0.01 in Snow Light Snow
11:09 PM 32.0 °F 24.8 °F 32.0 °F 100% 29.76 in 1.8 mi SE 8.1 mph - 0.02 in Snow Light Snow
11:18 PM 30.2 °F 22.6 °F 30.2 °F 100% 29.76 in 1.5 mi ESE 8.1 mph - 0.04 in Snow Light Snow
11:28 PM 30.2 °F 22.6 °F 30.2 °F 100% 29.76 in 2.5 mi East 8.1 mph - 0.04 in Snow Light Snow
11:38 PM 30.2 °F 23.4 °F 30.2 °F 100% 29.77 in 1.5 mi ESE 6.9 mph - 0.05 in Snow Light Snow
11:44 PM 30.2 °F 24.3 °F 30.2 °F 100% 29.77 in 3.0 mi East 5.8 mph - 0.05 in Snow Light Snow
11:53 PM 30.9 °F 25.2 °F 30.9 °F 100% 29.78 in 6.0 mi East 5.8 mph - 0.05 in Snow Light Snow